Simultaneous Nadir Overpasses (SNOs) Predictions

Prediction of SNOs between LANDSAT-8 and METOP-B Satellite Orbit:

Table of predicted SNOs for the next 14.0 days since TLE Epoch: 12/14/2024
Index Date (LANDSAT-8) Time (LANDSAT-8) Lat,Lon (LANDSAT-8) SZA (LANDSAT-8 ) Date (METOP-B) Time (METOP-B) Lat,Lon (METOP-B) SZA (METOP-B ) Distance(km) Time Diff (sec)
1 12/15/2024 13:54:22 81.42, 16.50 107.21 12/15/2024 13:54:16 81.42, 16.63 107.22 2.22 6
2 12/15/2024 14:43:48 -81.43,-175.55 72.75 12/15/2024 14:44:56 -81.42,-175.73 72.75 3.15 68
3 12/18/2024 08:39:12 -81.41, -84.82 72.75 12/18/2024 08:38:17 -81.42, -84.88 72.78 1.16 55
4 12/18/2024 09:28:38 81.42, 82.90 107.27 12/18/2024 09:28:57 81.42, 82.91 107.28 0.56 19
5 12/21/2024 04:13:26 -81.42, -18.30 72.74 12/21/2024 04:12:56 -81.42, -18.32 72.75 0.52 30
6 12/21/2024 05:02:52 81.42, 149.40 107.27 12/21/2024 05:03:36 81.42, 149.44 107.30 0.83 44
7 12/23/2024 23:47:40 -81.42, 48.30 72.78 12/23/2024 23:47:35 -81.42, 48.47 72.76 2.85 5
8 12/24/2024 00:37:06 81.43,-144.03 107.23 12/24/2024 00:38:16 81.42,-144.20 107.24 2.83 70
9 12/26/2024 18:32:27 81.42, -53.06 107.08 12/26/2024 18:31:35 81.42, -53.06 107.06 0.34 52



Historial Predications of SNOs between LANDSAT-8 and METOP-B
